Location: Vihti�l�
(61.3833°N, 23.0667°E)
Time: 04:23:48
(UTC+00:00)

Meteor 1-31 Rocket - Pass Details

Date: 29 November 2020
Orbit: 520 x 546 km, 97.6° (Epoch: 22 January)

Event Time Altitude Azimuth Distance (km) Brightness Sun altitude
Rises 05:31:19 0° 13° (NNE) 2,710 6.2 -10.3°
Reaches altitude 10° 05:33:56 10° 354° (N) 1,808 5.1 -10.0°
Maximum altitude 05:36:37 18° 311° (NW) 1,354 4.2 -9.7°
Drops below altitude 10° 05:39:17 10° 267° (W) 1,790 4.9 -9.5°
Enters shadow 05:40:36 - 255° (WSW) 2,207 5.5 -9.3°
